EW0772 Weather Reports


Display with metric or nautical units.
time (UTC)temp
F
wind
direction
speed
MPH
gust
MPH
rain 1hr
in
rain 24hr
in
rain mn
in
humidity
%
barometer
mb
20260504043027 70 141 22.0 39.0 0.00 0.00 0.00 44 1006.5
20260504041524 70 138 26.0 38.0 0.00 0.00 0.00 44 1006.7
20260504040037 71 147 24.0 37.0 0.00 0.00 0.00 43 1006.6
20260504034524 73 144 26.0 39.0 0.00 0.00 0.00 41 1006.2
20260504033023 74 141 30.0 41.0 0.00 0.00 0.00 39 1005.5
20260504031521 75 146 24.0 41.0 0.00 0.00 0.00 37 1005.2
20260504030020 76 138 15.0 33.0 0.00 0.00 0.00 35 1004.7
20260504024520 78 116 16.0 32.0 0.00 0.00 0.00 33 1004.7
20260504023019 79 136 19.0 33.0 0.00 0.00 0.00 32 1004.5
20260504021518 79 360 11.0 24.0 0.00 0.00 0.00 30 1004.3
20260504020018 81 360 16.0 29.0 0.00 0.00 0.00 29 1003.8
20260504014524 83 360 20.0 31.0 0.00 0.00 0.00 26 1003.8
20260504013019 84 360 14.0 23.0 0.00 0.00 0.00 24 1003.6
20260504011517 85 360 10.0 17.0 0.00 0.00 0.00 23 1003.6
20260504010016 87 360 10.0 24.0 0.00 0.00 0.00 23 1003.9
20260504004516 87 360 13.0 21.0 0.00 0.00 0.00 22 1003.5
20260504003015 88 360 10.0 19.0 0.00 0.00 0.00 22 1003.2
20260504001515 87 360 12.0 24.0 0.00 0.00 0.00 24 1003.3
20260504000014 88 360 12.0 23.0 0.00 0.00 0.00 24 1003.4
20260503234514 87 360 14.0 26.0 0.00 0.00 0.00 26 1003.6
20260503233013 87 360 18.0 30.0 0.00 0.00 0.00 25 1003.7
20260503231513 88 360 18.0 30.0 0.00 0.00 0.00 25 1003.6
20260503230013 88 360 18.0 32.0 0.00 0.00 0.00 25 1003.4
20260503224512 88 360 20.0 31.0 0.00 0.00 0.00 24 1003.3
20260503223012 88 281 22.0 32.0 0.00 0.00 0.00 24 1003.6
20260503221511 89 360 21.0 31.0 0.00 0.00 0.00 23 1003.3
20260503220010 90 360 15.0 25.0 0.00 0.00 0.00 22 1003.2
20260503214507 91 360 6.0 20.0 0.00 0.00 0.00 23 1003.9
20260503213008 93 360 5.0 15.0 0.00 0.00 0.00 20 1004.1
20260503211505 93 202 1.0 11.0 0.00 0.00 0.00 17 1004.1
20260503210003 93 90 8.0 15.0 0.00 0.00 0.00 15 1004.2
20260503204601 93 78 4.0 11.0 0.00 0.00 0.00 15 1004.3
20260503203057 92 5 7.0 15.0 0.00 0.00 0.00 16 1004.5
20260503201556 91 84 8.0 17.0 0.00 0.00 0.00 15 1004.7
20260503200057 91 360 10.0 17.0 0.00 0.00 0.00 14 1005.0
20260503194549 91 71 5.0 13.0 0.00 0.00 0.00 18 1005.2
20260503193049 90 80 4.0 10.0 0.00 0.00 0.00 20 1005.6
20260503191545 89 88 0.0 9.0 0.00 0.00 0.00 19 1005.9
20260503190045 89 360 4.0 11.0 0.00 0.00 0.00 19 1006.2
20260503184540 88 85 2.0 9.0 0.00 0.00 0.00 20 1006.3
20260503183052 87 110 2.0 8.0 0.00 0.00 0.00 20 1006.7
20260503181549 86 92 1.0 7.0 0.00 0.00 0.00 20 1006.9
20260503180035 86 71 0.0 8.0 0.00 0.00 0.00 24 1007.0
20260503174534 85 5 0.0 5.0 0.00 0.00 0.00 25 1007.1
20260503173032 85 77 1.0 3.0 0.00 0.00 0.00 26 1007.4
20260503171528 83 92 1.0 6.0 0.00 0.00 0.00 28 1007.4
20260503160118 78 360 3.0 9.0 0.00 0.00 0.00 38 1007.6
20260503081539 78 159 0.0 0.0 0.00 0.00 0.00 35 1006.6
20260503071535 79 213 0.0 0.0 0.00 0.00 0.00 30 1006.8
20260503054529 84 180 0.0 0.0 0.00 0.00 0.00 24 1006.9
20260503053017 85 135 0.0 0.0 0.00 0.00 0.00 21 1007.0
20260503051525 86 144 0.0 0.0 0.00 0.00 0.00 18 1006.8
20260503050021 85 207 0.0 0.0 0.00 0.00 0.00 17 1006.8
20260503044526 85 147 0.0 0.0 0.00 0.00 0.00 16 1006.7